Location: *
(41.0833°N, 73.4167°W)
Time: 20:40:37
(UTC+00:00)

ATLAS 2AS CENTAUR R/B - Pass Details

Date: 22 October 2019
Orbit: 926 x 1286 km, 63.7° (Epoch: 01 November)

Event Time Altitude Azimuth Distance (km) Brightness Sun altitude
Exits shadow 07:56:06 66° 42° (NE) 1,389 3.2 -37.3°
Drops below altitude 10° 08:02:50 10° 35° (NE) 3,286 5.8 -36.1°
Sets 08:05:38 0° 36° (NE) 4,241 6.5 -35.6°
